Home   Weather   Saint-Pierre   Past weeks

Flag for Saint Pierre and Miquelon Past Weather in Saint-Pierre, Saint Pierre and Miquelon — Yesterday and Last 2 Weeks

Now
18 °F

Passing clouds.


Feels Like: 0 °F
Forecast: N/A
Wind: 23 mph from Northwest

Location: Saint-Pierre

Current Time: Jan 17, 2017 at 8:58:59 pm

Latest Report: Jan 17, 2017 at 6:00 pm


Visibility: N/A

Pressure: 29.89 "Hg

Humidity: 79%

Dew Point: 12 °F

Location of Saint-PierreLocation

Past Weather in Saint-Pierre — Graph

°F

Saint-Pierre Temperature Yesterday

Maximum temperature yesterday: 19 °F (at 5:00 pm)
Minimum temperature yesterday: 14 °F (at 7:00 am)
Average temperature yesterday: 17 °F

High & Low Weather Summary for the Past Weeks

 TemperatureHumidityPressure
High43 °F (Jan 8, 12:00 pm)100% (Jan 5, 7:00 am)30.89 "Hg (Jan 5, 7:00 am)
Low14 °F (Jan 16, 7:00 am)53% (Jan 14, 8:00 am)29.24 "Hg (Jan 8, 2:00 pm)
Average30 °F80%30.06 "Hg
* Reported Jan 2 6:00 pm — Jan 17 6:00 pm, Saint-Pierre, Weather by CustomWeather, © 2017

Note: Actual official high and low records may vary slightly from our data, if they occured in-between our weather recording intervals... More about our weather records

Advertising

Saint-Pierre Weather History for the Previous 24 Hours

Scroll right to see more
 ConditionsComfort  
Time TempWeatherWind HumidityBarometerVisibility
6:00 pm
Tue, Jan 17
18 °FPassing clouds.23 mph79%29.89 "HgN/A
5:00 pm19 °FPartly sunny.21 mph79%29.86 "Hg4 mi
4:00 pm21 °FPartly sunny.22 mph86%29.83 "Hg4 mi
3:00 pm23 °FSnow flurries. Partly sunny.23 mph86%29.83 "Hg3 mi
2:00 pm25 °FPartly sunny.25 mph86%29.80 "Hg3 mi
1:00 pm27 °FScattered clouds.21 mph93%29.83 "Hg3 mi
12:00 pm27 °FPartly sunny.24 mph93%29.83 "Hg5 mi
11:30 am27 °FSnow flurries. Partly sunny.24 mph100%29.83 "Hg1 mi
11:00 am28 °FMore clouds than sun.21 mph93%29.83 "HgN/A
10:38 am28 °FSnow showers. Partly sunny.25 mph93%29.83 "Hg1 mi
10:23 am28 °FSnow flurries. Partly sunny.21 mph93%29.83 "Hg2 mi
10:00 am28 °FSnow flurries. Partly sunny.29 mph93%29.83 "Hg3 mi
9:00 am28 °FPartly sunny.18 mph100%29.83 "Hg5 mi
8:52 am28 °FPartly sunny.23 mph100%29.83 "Hg2 mi
8:00 am28 °FPassing clouds.23 mph100%29.83 "HgN/A
7:35 am28 °FPassing clouds.22 mph100%29.83 "Hg5 mi
7:00 am30 °FLight snow. Passing clouds.22 mph93%29.83 "Hg3 mi
6:35 am28 °FLight snow. Passing clouds.22 mph100%29.83 "Hg2 mi
Weather by CustomWeather, © 2017

See weather overviewHow to use our weather pages